Location: El Carrer d�Abaix
(41.5797°N, 2.1791°E)
Time: 00:31:06
(UTC+00:00)

STARLINK-1378 - Pass Details

Date: 04 October 2020
Orbit: 548 x 551 km, 53.0° (Epoch: 27 October)

Event Time Altitude Azimuth Distance (km) Brightness Sun altitude
Exits shadow 04:39:21 12° 313° (NW) 1,681 5.7 -14.3°
Maximum altitude 04:41:39 18° 351° (N) 1,388 5.6 -13.9°
Drops below altitude 10° 04:44:33 10° 35° (NE) 1,828 6.9 -13.3°
Sets 04:47:23 0° 55° (NE) 2,724 8.3 -12.8°
